Regional Weather Roundup
Issued by NWS

Home | Current Version | Previous Version | Graphics & Text | Print | Product List | Glossary Off
Versions: 1 2 3 4 5 6 7 8 9 10 11 12 13 14 15 16 17 18 19 20 21 22 23 24 25 26 27 28 29 30 31 32 33 34 35 36 37 38 39 40 41 42 43 44 45 46 47 48 49 50

000
ASUS43 KDMX 240706
RWRIA

WEATHER ROUNDUP FOR IOWA
NATIONAL WEATHER SERVICE DES MOINES IA
100 AM CST FRI NOV 24 2017

NOTE: "FAIR" INDICATES FEW OR NO CLOUDS BELOW 12,000 FEET WITH NO
SIGNIFICANT WEATHER AND/OR OBSTRUCTIONS TO VISIBILITY.

* - THESE STATIONS ARE NOT NWS STATIONS...THUS NOT UNDER NWS
QUALITY CONTROL.  THEY ALSO DO NOT REPORT WEATHER SUCH
AS PRECIPITATION OR FOG.

IAZ001>003-012>014-020>022-031>034-043>046-240800-
   NORTHWEST IOWA

CITY           SKY/WX    TMP DP  RH WIND       PRES   REMARKS
CARROLL *      CLEAR     52  37  58 SW20      29.67F
CHEROKEE *     CLEAR     49  39  68 S8        29.62F
DENISON *      CLEAR     50  37  62 S10       29.69F
LE MARS *      CLEAR     48  39  71 S12       29.60F
ORANGE CITY *  CLEAR     48  41  76 S9        29.60F
SHELDON *      CLEAR     48  39  71 S14G21    29.58F
SIOUX CITY     CLEAR     42  37  82 SE10      29.62F
SPENCER        CLEAR     52  39  61 SW14      29.60F
STORM LAKE *   CLEAR     48  39  71 SW14      29.64F
$$

IAZ055>058-069>071-079>083-090>094-240800-
   SOUTHWEST IOWA

CITY           SKY/WX    TMP DP  RH WIND       PRES   REMARKS
ATLANTIC *     PTCLDY    46  37  71 S7        29.72F
AUDUBON *      CLEAR     52  39  62 S12       29.70F
CLARINDA *       N/A     50  39  66 S9          N/A
COUNCIL BLFS * CLEAR     54  41  62 S13       29.70F
CRESTON *      CLOUDY    50  37  62 S13       29.76F
HARLAN  *      PTCLDY    46  39  76 S8        29.73F
LAMONI         PTCLDY    50  36  58 S13       29.78F
RED OAK *      CLEAR     48  37  66 S3        29.74S
SHENANDOAH *   PTCLDY    52  39  62 S8        29.74F
$$

IAZ047>049-059>061-072>074-084-240800-
   CENTRAL IOWA

CITY           SKY/WX    TMP DP  RH WIND       PRES   REMARKS
AMES           PTCLDY    40  35  83 S7        29.71F
ANKENY *       CLOUDY    48  36  61 S8        29.74F
BOONE *        PTCLDY    48  37  66 S8        29.69F
CHARITON *     PTCLDY    48  36  61 S13       29.76F
DES MOINES     MOCLDY    51  36  56 S14       29.73F
GRINNELL*      CLOUDY    45  34  65 S13       29.76F
KNOXVILLE *    CLOUDY    50  34  53 S10       29.75F
MARSHALLTOWN   CLOUDY    47  35  63 S15       29.72F
NEWTON *       PTCLDY    43  34  70 S10       29.74F
PELLA *        CLOUDY    46  35  66 S6        29.77F
PERRY *          N/A     46  34  62 S9        29.70F
$$

IAZ004>006-015-016-023>025-035-036-240800-
   NORTH CENTRAL IOWA

CITY           SKY/WX    TMP DP  RH WIND       PRES   REMARKS
ALGONA *       CLEAR     41  36  81 S13       29.63F
CLARION *      CLEAR     43  36  75 S15       29.66F
ESTHERVILLE    CLEAR     48  39  71 S17       29.59F
FORT DODGE *   CLEAR     46  36  68 S10       29.66F
MASON CITY     CLEAR     43  33  68 S10       29.66F
FOREST CITY *    N/A     45  34  65 S10       29.64F
WEBSTER CITY * CLEAR     45  36  70 S10       29.66F
IOWA FALLS *     N/A     46  36  66 S14       29.70F
$$

IAZ007>011-017>019-026>030-037>042-050>054-066-240800-
   NORTHEAST IOWA

CITY           SKY/WX    TMP DP  RH WIND       PRES   REMARKS
CEDAR RAPIDS   CLOUDY    36  30  79 S10       29.78F WCI  28
CHARLES CITY * CLEAR     39  32  75 S13       29.69F WCI  32
CLINTON *      CLEAR     33  27  78 S8        29.82F WCI  26
DECORAH *      PTCLDY    43  32  65 S10G18    29.67F
DUBUQUE        CLEAR     33  27  78 S13       29.77F WCI  24
MONTICELLO *   CLOUDY    36  28  75 S7        29.78F WCI  30
OELWEIN *      CLOUDY    39  34  81 S15       29.73F WCI  31
WATERLOO       PTCLDY    41  31  67 S9        29.72F
$$

IAZ064-065-067-068-078-240800-
   EAST CENTRAL IOWA

CITY           SKY/WX    TMP DP  RH WIND       PRES   REMARKS
DAVENPORT      CLEAR     36  28  73 S7        29.84F WCI  30
IOWA CITY      CLEAR     33  27  78 E3        29.82F
MT. PLEASANT * CLEAR     37  31  79 S9        29.83F WCI  30
MUSCATINE *    CLEAR     30  27  86 CALM      29.83F
QUAD CITIES    CLEAR     38  27  64 S5        29.83F WCI  34
$$

IAZ062-063-075>077-085>089-095>099-240800-
   SOUTHEAST IOWA

CITY           SKY/WX    TMP DP  RH WIND       PRES   REMARKS
BURLINGTON     CLEAR     37  31  78 S9        29.84F WCI  30
FAIRFIELD *    PTCLDY    39  32  75 S7        29.81F WCI  34
FORT MADISON * CLEAR     39  32  75 S7        29.85F WCI  34
KEOKUK *       CLEAR     41  32  70 S8        29.85F
OSKALOOSA *      N/A     39  33  77 S12       29.79F WCI  32
OTTUMWA        PTCLDY    43  34  70 S9        29.80F
WASHINGTON *   CLEAR     36  32  87 S9        29.82F WCI  29
$$

ABBREVIATIONS USED IN REMARKS
   TC - TEMPERATURES IN CELSIUS
  WCI - WIND CHILL INDEX
   HX - HEAT INDEX
  VSB - VISIBILITY
$$




USA.gov is the U.S. government's official web portal to all federal, state and local government web resources and services.